Portland, OR

11:50 AM PDT on March 28, 2017 (GMT -0700)
Portland International Airport

Weather History for KPDX - February, 2013

Change the Weather History Date:

Monday, February 18, 2013

  Actual Average Record
Temperature  
Mean Temperature 42 °F 44 °F  
Max Temperature 48 °F 52 °F 68 °F (1977)
Min Temperature 35 °F 36 °F 20 °F (1955)
Degree Days  
Heating Degree Days 23 21  
Month to date heating degree days 367 391  
Since 1 July heating degree days 2695 2855  
Cooling Degree Days 0 0  
Month to date cooling degree days 0 0  
Year to date cooling degree days 0 0  
Moisture  
Dew Point 34 °F    
Average Humidity 73    
Maximum Humidity 92    
Minimum Humidity 53    
Precipitation  
Precipitation T in 0.13 in 1.38 in (1968)
Month to date precipitation 0.27 2.36  
Year to date precipitation 3.76 7.24  
Snow  
Snow 0.00 in - 4.10 in (1949)
Month to date snowfall 0.0  
Since 1 July snowfall 0.0  
Snow Depth 0.00 in    
Sea Level Pressure  
Sea Level Pressure 29.95 in    
Wind  
Wind Speed 6 mph (SE)    
Max Wind Speed 16 mph    
Max Gust Speed 20 mph    
Visibility 10 miles    
Events Rain    
T = Trace of Precipitation, MM = Missing Value Source: NWS Daily Summary

Daily Weather History Graph

Daily Weather History Graph

Search for Another Location

Airport or City:

Trip Planner

Search our weather history database for the weather conditions in past years. The results will help you decide how hot, cold, wet, or windy it might be!

Date:

Astronomy

Feb. 18, 2013 Rise Set
Actual Time 7:06 AM PST 5:42 PM PST
Civil Twilight 6:36 AM PST 6:12 PM PST
Nautical Twilight 6:02 AM PST 6:47 PM PST
Astronomical Twilight 5:27 AM PST 7:21 PM PST
Moon 11:23 AM PST (2/18) 2:00 AM PST (2/18)
Length of Visible Light 11h 35m
Length of Day
10h 35m
First Quarter, 59% of the Moon is Illuminated
Feb 18
First Quarter
Feb 25
Full
Mar 4
Last Quarter
Mar 11
New
Mar 19
First Quarter

Hourly Weather History & Observations

Time (PST) Temp. Windchill Dew Point Humidity Pressure Visibility Wind Dir Wind Speed Gust Speed Precip Events Conditions
12:53 AM 37.9 °F - 34.0 °F 86% 30.10 in 10.0 mi Calm Calm - N/A   Overcast
1:53 AM 37.0 °F 33.3 °F 34.0 °F 89% 30.08 in 10.0 mi East 4.6 mph - N/A   Overcast
2:53 AM 36.0 °F 33.3 °F 33.1 °F 89% 30.07 in 10.0 mi East 3.5 mph - N/A   Mostly Cloudy
3:53 AM 36.0 °F - 33.1 °F 89% 30.05 in 10.0 mi Calm Calm - N/A   Overcast
4:53 AM 36.0 °F - 33.1 °F 89% 30.03 in 10.0 mi Calm Calm - N/A   Overcast
5:53 AM 35.6 °F 31.7 °F 33.8 °F 93% 30.03 in 10.0 mi East 4.6 mph - N/A   Mostly Cloudy
6:53 AM 35.1 °F 30.1 °F 32.0 °F 89% 30.03 in 10.0 mi ESE 5.8 mph - N/A   Mostly Cloudy
7:53 AM 36.0 °F 32.1 °F 33.1 °F 89% 30.04 in 10.0 mi SE 4.6 mph - N/A   Mostly Cloudy
8:53 AM 37.9 °F 33.5 °F 34.0 °F 86% 30.04 in 10.0 mi East 5.8 mph - N/A   Mostly Cloudy
9:53 AM 39.0 °F 34.8 °F 34.0 °F 82% 30.03 in 10.0 mi East 5.8 mph - N/A   Overcast
10:53 AM 41.0 °F 35.8 °F 34.0 °F 76% 30.01 in 10.0 mi East 8.1 mph - N/A   Overcast
11:53 AM 43.0 °F 38.8 °F 34.0 °F 71% 30.01 in 10.0 mi SSW 6.9 mph - N/A   Overcast
12:53 PM 46.0 °F 43.1 °F 34.0 °F 63% 29.98 in 10.0 mi Variable 5.8 mph - N/A   Overcast
1:53 PM 46.9 °F - 30.9 °F 54% 29.96 in 10.0 mi Variable 6.9 mph - N/A   Mostly Cloudy
2:53 PM 46.4 °F 42.9 °F 32.0 °F 57% 29.93 in 10.0 mi SSW 6.9 mph - N/A   Mostly Cloudy
3:53 PM 46.9 °F - 32.0 °F 56% 29.91 in 10.0 mi South 8.1 mph - N/A   Overcast
4:53 PM 46.0 °F 41.0 °F 35.1 °F 66% 29.89 in 10.0 mi SSW 10.4 mph - 0.00 in Rain Light Rain
5:53 PM 46.0 °F 39.9 °F 35.1 °F 66% 29.88 in 10.0 mi SSW 13.8 mph - 0.00 in Rain Light Rain
6:53 PM 45.0 °F 41.2 °F 36.0 °F 71% 29.85 in 10.0 mi SE 6.9 mph - 0.00 in   Overcast
7:53 PM 44.1 °F 40.1 °F 36.0 °F 73% 29.83 in 10.0 mi ESE 6.9 mph - N/A   Overcast
8:53 PM 43.0 °F 36.8 °F 37.0 °F 80% 29.81 in 10.0 mi East 11.5 mph - 0.00 in   Overcast
9:53 PM 43.0 °F 40.3 °F 37.0 °F 80% 29.80 in 10.0 mi ESE 4.6 mph - 0.00 in   Overcast
10:53 PM 42.1 °F 36.1 °F 37.0 °F 82% 29.78 in 10.0 mi ESE 10.4 mph - 0.00 in   Overcast
11:53 PM 42.1 °F 35.7 °F 36.0 °F 79% 29.76 in 10.0 mi ESE 11.5 mph - N/A   Overcast